EW6866 Weather Reports


Display with metric or nautical units.
time (UTC)temp
F
wind
direction
speed
MPH
gust
MPH
rain 1hr
in
rain 24hr
in
rain mn
in
humidity
%
barometer
mb
20260831134504 80 125 0.0 1.0 0.00 0.00 0.00 90 1018.3
20260831133025 78 105 0.0 1.0 0.00 0.00 0.00 92 1018.3
20260831131503 77 0 0.0 0.0 0.00 0.00 0.00 96 1018.4
20260831130004 76 141 0.0 1.0 0.00 0.00 0.00 98 1018.1
20260831124504 75 0 0.0 0.0 0.00 0.00 0.00 99 1018.1
20260831123003 74 131 0.0 1.0 0.00 0.00 0.00 99 1018.2
20260831121504 73 115 0.0 1.0 0.00 0.00 0.00 99 1018.3
20260831120025 72 0 0.0 0.0 0.00 0.00 0.00 99 1018.4
20260831114503 71 0 0.0 0.0 0.00 0.00 0.00 99 1018.5
20260831113004 71 0 0.0 0.0 0.00 0.00 0.00 99 1018.4
20260831111504 70 0 0.0 0.0 0.00 0.00 0.00 99 1018.5
20260831110003 70 0 0.0 0.0 0.00 0.00 0.00 98 1018.3
20260831104504 70 0 0.0 0.0 0.00 0.00 0.00 98 1018.1
20260831103004 70 0 0.0 0.0 0.00 0.00 0.00 98 1018.0
20260831101505 71 246 0.0 1.0 0.00 0.00 0.00 98 1017.9
20260831100003 71 0 0.0 0.0 0.00 0.00 0.00 98 1017.9
20260831094504 71 0 0.0 0.0 0.00 0.00 0.00 98 1017.8
20260831093003 71 0 0.0 0.0 0.00 0.00 0.00 98 1017.9
20260831091503 71 0 0.0 0.0 0.00 0.00 0.00 98 1018.1
20260831090004 72 0 0.0 0.0 0.00 0.00 0.00 98 1018.0
20260831084503 72 0 0.0 0.0 0.00 0.00 0.00 98 1018.0
20260831083004 72 0 0.0 0.0 0.00 0.00 0.00 98 1017.8
20260831081504 72 0 0.0 0.0 0.00 0.00 0.00 98 1017.8
20260831080003 72 0 0.0 0.0 0.00 0.00 0.00 98 1017.9
20260831074505 72 0 0.0 0.0 0.00 0.00 0.00 98 1017.9
20260831073026 73 0 0.0 0.0 0.00 0.00 0.00 98 1018.1
20260831071526 73 0 0.0 0.0 0.00 0.00 0.00 98 1018.0
20260831070005 73 0 0.0 0.0 0.00 0.00 0.00 98 1018.1
20260831064505 73 0 0.0 0.0 0.00 0.00 0.00 98 1018.1
20260831063005 73 0 0.0 0.0 0.00 0.00 0.00 97 1018.2
20260831061505 74 0 0.0 0.0 0.00 0.00 0.00 98 1018.2
20260831060005 74 0 0.0 0.0 0.00 0.00 0.00 97 1018.4
20260831054505 74 230 0.0 1.0 0.00 0.00 0.00 98 1018.6
20260831053005 74 0 0.0 0.0 0.00 0.00 0.00 97 1018.7
20260831051505 74 0 0.0 0.0 0.00 0.00 0.00 97 1018.7
20260831050005 74 0 0.0 0.0 0.00 0.00 0.00 97 1018.8
20260831044505 74 0 0.0 0.0 0.00 0.00 0.00 97 1018.9
20260831043025 74 0 0.0 0.0 0.00 0.00 0.00 97 1018.8
20260831041505 75 0 0.0 0.0 0.00 0.00 0.00 97 1018.9
20260831040027 74 0 0.0 0.0 0.00 0.00 0.00 96 1018.8
20260831034526 75 0 0.0 0.0 0.00 0.00 0.00 96 1018.7
20260831033025 74 0 0.0 0.0 0.00 0.00 0.00 96 1018.9
20260831031505 75 0 0.0 0.0 0.00 0.00 0.00 96 1018.8
20260831030026 75 0 0.0 0.0 0.00 0.00 0.00 96 1018.8
20260831024504 75 0 0.0 0.0 0.00 0.00 0.00 95 1019.0
20260831023026 75 0 0.0 0.0 0.00 0.00 0.00 95 1019.0
20260831021505 75 0 0.0 0.0 0.00 0.00 0.00 95 1019.0
20260831020026 76 0 0.0 0.0 0.00 0.00 0.00 94 1019.1
20260831014526 76 0 0.0 0.0 0.00 0.00 0.00 94 1019.0
20260831013004 76 0 0.0 0.0 0.00 0.00 0.00 93 1019.0
20260831011505 76 0 0.0 0.0 0.00 0.00 0.00 92 1018.9
20260831010005 77 0 0.0 0.0 0.00 0.00 0.00 91 1018.9
20260831004526 78 268 0.0 1.0 0.00 0.00 0.00 91 1018.7
20260831003004 78 279 0.0 1.0 0.00 0.00 0.00 89 1018.5
20260831001505 78 253 0.0 1.0 0.00 0.00 0.00 89 1018.7
20260831000005 79 245 0.0 2.0 0.00 0.00 0.00 88 1018.7
20260830234526 79 285 0.0 3.0 0.00 0.00 0.00 87 1018.7
20260830233025 80 267 0.0 5.0 0.00 0.00 0.00 86 1018.9
20260830231525 81 276 0.0 4.0 0.00 0.00 0.00 86 1019.0
20260830230005 82 262 0.0 5.0 0.00 0.00 0.00 85 1018.9
20260830224505 82 252 0.0 4.0 0.00 0.00 0.00 82 1019.0
20260830223004 82 0 0.0 0.0 0.00 0.00 0.00 84 1019.0
20260830221505 83 0 0.0 0.0 0.00 0.00 0.00 82 1018.8
20260830220005 83 325 0.0 1.0 0.00 0.00 0.00 82 1018.9
20260830214504 84 0 0.0 0.0 0.00 0.00 0.00 81 1018.9
20260830213004 84 290 1.0 3.0 0.00 0.00 0.00 78 1018.9
20260830211504 85 269 1.0 3.0 0.00 0.00 0.00 78 1018.7
20260830210004 85 276 0.0 3.0 0.00 0.00 0.00 79 1018.6
20260830204504 84 292 1.0 5.0 0.00 0.00 0.00 80 1018.6
20260830203005 85 280 0.0 3.0 0.00 0.00 0.00 77 1018.7
20260830201505 87 287 0.0 2.0 0.00 0.00 0.00 75 1018.8
20260830200004 88 64 0.0 1.0 0.00 0.00 0.00 71 1018.7
20260830194505 88 290 0.0 3.0 0.00 0.00 0.00 69 1019.0
20260830193004 87 273 0.0 3.0 0.00 0.00 0.00 71 1019.1
20260830191504 87 258 0.0 3.0 0.00 0.00 0.00 68 1019.3
20260830190004 88 260 0.0 3.0 0.00 0.01 0.00 70 1019.6
20260830184526 87 262 0.0 2.0 0.00 0.01 0.00 69 1019.6
20260830183004 88 223 0.0 2.0 0.00 0.01 0.00 69 1019.8
20260830181504 88 259 0.0 2.0 0.00 0.01 0.00 67 1019.8
20260830180026 88 223 1.0 3.0 0.00 0.01 0.00 71 1019.8
20260830174504 88 263 0.0 4.0 0.00 0.01 0.00 72 1019.8
20260830173004 88 267 0.0 1.0 0.00 0.01 0.00 74 1020.0
20260830171525 86 257 0.0 2.0 0.00 0.01 0.00 73 1020.2
20260830170004 85 224 0.0 3.0 0.00 0.01 0.00 76 1020.4
20260830164504 85 187 0.0 2.0 0.00 0.01 0.00 80 1020.5
20260830163004 84 257 0.0 3.0 0.00 0.01 0.00 77 1020.6
20260830161504 85 263 0.0 1.0 0.00 0.01 0.00 78 1020.5
20260830160004 85 134 0.0 1.0 0.00 0.01 0.00 78 1020.6
20260830154504 85 64 0.0 1.0 0.00 0.01 0.00 78 1020.7
20260830153004 83 123 0.0 1.0 0.00 0.01 0.00 80 1020.8
20260830151504 82 96 0.0 1.0 0.00 0.01 0.00 84 1021.2
20260830150004 82 72 0.0 1.0 0.00 0.01 0.00 85 1021.4
20260830144504 81 65 0.0 2.0 0.00 0.01 0.00 85 1021.4
20260830143004 81 76 1.0 1.0 0.00 0.01 0.00 87 1021.4
20260830141524 81 59 0.0 3.0 0.00 0.01 0.00 88 1021.4
20260830140004 80 0 0.0 0.0 0.00 0.01 0.00 90 1021.5